Time,TemperatureF,DewpointF,PressureIn,WindDirection,WindDirectionDegrees,WindSpeedMPH,WindSpeedGustMPH,Humidity,HourlyPrecipIn,Conditions,Clouds,dailyrainin,SoftwareType,DateUTC
2014-12-20 00:03:00,30.2,23.6,30.59,NE,45,0.0,-999.0,76,-99.99,,,0.00,Acu-Link.com,2014-12-20 05:03:00,
2014-12-20 00:18:00,30.2,23.6,30.59,NE,45,0.0,-999.0,76,-99.99,,,0.00,Acu-Link.com,2014-12-20 05:18:00,
2014-12-20 00:33:00,30.2,23.6,30.59,NE,45,0.0,-999.0,76,-99.99,,,0.00,Acu-Link.com,2014-12-20 05:33:00,
2014-12-20 00:48:00,28.2,21.6,30.59,NE,45,0.0,-999.0,76,-99.99,,,0.00,Acu-Link.com,2014-12-20 05:48:00,
2014-12-20 01:03:00,28.2,21.6,30.59,NE,45,0.0,-999.0,76,-99.99,,,0.00,Acu-Link.com,2014-12-20 06:03:00,
2014-12-20 01:18:00,28.2,21.6,30.59,NE,45,0.0,-999.0,76,-99.99,,,0.00,Acu-Link.com,2014-12-20 06:18:00,
2014-12-20 01:33:00,30.2,23.6,30.59,NE,45,0.0,-999.0,76,-99.99,,,0.00,Acu-Link.com,2014-12-20 06:33:00,
2014-12-20 01:48:00,28.2,21.6,30.59,NE,45,0.0,-999.0,76,-99.99,,,0.00,Acu-Link.com,2014-12-20 06:48:00,
2014-12-20 02:03:00,21.9,20.7,30.61,East,90,0.0,-999.0,95,-99.99,,,0.00,Acu-Link.com,2014-12-20 07:03:00,
2014-12-20 02:18:00,22.5,21.0,30.61,NE,45,0.0,-999.0,94,-99.99,,,0.00,Acu-Link.com,2014-12-20 07:18:00,
2014-12-20 02:33:00,22.8,21.4,30.62,SSE,157,0.0,-999.0,94,-99.99,,,0.00,Acu-Link.com,2014-12-20 07:33:00,
2014-12-20 02:48:00,24.8,23.3,30.63,NE,45,1.6,-999.0,94,-99.99,,,0.00,Acu-Link.com,2014-12-20 07:48:00,
2014-12-20 03:03:00,24.8,23.3,30.63,East,90,1.1,-999.0,94,-99.99,,,0.00,Acu-Link.com,2014-12-20 08:03:00,
2014-12-20 03:18:00,24.8,23.3,30.63,WNW,292,0.0,-999.0,94,-99.99,,,0.00,Acu-Link.com,2014-12-20 08:18:00,
2014-12-20 03:33:00,26.6,24.9,30.63,North,0,1.6,-999.0,93,-99.99,,,0.00,Acu-Link.com,2014-12-20 08:33:00,
2014-12-20 03:48:00,24.1,22.4,-7.53,North,0,1.6,-999.0,93,-99.99,,,0.00,Acu-Link.com,2014-12-20 08:48:00,
2014-12-20 04:03:00,24.3,22.5,30.62,South,180,1.6,-999.0,93,-99.99,,,0.00,Acu-Link.com,2014-12-20 09:03:00,
2014-12-20 04:18:00,24.3,22.5,30.63,NW,315,1.1,-999.0,93,-99.99,,,0.00,Acu-Link.com,2014-12-20 09:18:00,
2014-12-20 04:33:00,24.4,22.5,30.63,WNW,292,0.0,-999.0,92,-99.99,,,0.00,Acu-Link.com,2014-12-20 09:33:00,
2014-12-20 04:48:00,24.4,22.7,30.62,ESE,112,0.0,-999.0,93,-99.99,,,0.00,Acu-Link.com,2014-12-20 09:48:00,
2014-12-20 05:03:00,24.6,22.9,30.62,WNW,292,0.0,-999.0,93,-99.99,,,0.00,Acu-Link.com,2014-12-20 10:03:00,